[[{"header":{"parameterUnit":"m.s-1","parameterCategory":1,"la1":30.2991,"la2":30.254,"lo1":-89.0895,"lo2":-89.0444,"dy":0.0017,"dx":0.0017,"nx":28,"ny":28,"refTime":"2023-07-19T03:00:00:Z","depth":0,"parameterNumber":2,"parameterNumberName":"U-component_of_WINDS"},"data":[0,0,0,0,0,0,0,0,0,0,0,0,0,0,0,0,0,0,0,0,0,0,0,0,0,0,0,0,0,0,0,0,0,0,0,0,0,0,0,0,0,0,0,0,0,0,0,0,0,0,0,0,0,0,0,0,0,0,2.969,2.969,0,2.9749,2.9749,2.975,2.9713,2.9711,2.971,2.9708,2.9766,2.9769,2.9772,0,0,0,0,0,0,0,0,0,0,0,0,0,2.954,2.9543,2.9689,2.969,2.9691,2.9749,2.9749,2.975,2.9713,2.9711,2.9709,2.9707,2.9765,2.9769,2.9773,0,0,0,0,0,0,0,0,0,0,0,0,0,2.9602,2.9544,2.9689,2.968,2.9679,2.9749,2.975,2.975,2.9714,2.9711,2.9709,2.9706,2.9764,2.9769,2.9773,2.9855,0,0,2.9788,2.979,0,0,0,0,0,0,0,0,2.9599,2.9608,2.968,2.968,2.968,2.9721,2.9718,2.9785,2.9714,2.9701,2.9708,2.9705,2.9753,2.9759,2.9775,2.9857,2.986,2.9788,2.9791,2.9793,2.9794,0,0,0,0,0,0,0,2.9595,2.9605,2.9713,2.9681,2.9681,2.9671,2.9677,2.9731,2.9741,2.9702,2.9699,2.9707,2.9753,2.9771,2.9776,2.9861,2.9788,2.9792,2.9795,2.9797,3.0009,3.0011,0,0,0,0,0,0,2.9592,2.9602,2.9711,2.9715,2.9632,2.9675,2.9682,2.971,2.974,2.9742,2.9709,2.9705,2.9764,2.9771,2.9778,2.9873,2.9793,2.9798,2.98,3.0006,3.0009,3.0012,0,0,0,0,0,0,2.9589,2.9602,2.9709,2.9658,2.967,2.9681,2.9713,2.9713,2.9731,2.9746,2.9747,2.9726,2.9762,2.9772,2.9835,2.9874,2.98,2.9804,3.0003,3.0007,3.0011,3.0064,0,0,0,0,0,0,2.9584,2.9601,2.9633,2.9659,2.9673,2.9766,2.9715,2.9716,2.974,2.9735,2.9762,2.9764,2.9761,2.9828,2.984,2.9879,2.9808,2.9999,3.0004,3.0009,3.0059,3.0069,3.0079,0,0,0,0,0,2.9579,2.9646,2.9635,2.9648,2.9714,2.9768,2.9777,2.9773,2.9743,2.9775,2.9783,2.9763,2.9869,2.9835,2.9848,2.9889,2.9997,3.0003,3.0009,3.0054,3.0067,3.0078,0,0,0,0,0,0,2.9625,2.9649,2.9637,2.9715,2.974,2.9762,2.9802,2.9787,2.982,2.9814,2.9807,2.9814,2.9879,2.9891,2.9854,2.9968,2.9928,2.9937,2.9958,2.997,2.998,2.9975,2.9812,0,0,0,0,0,2.9644,2.9687,2.9706,2.9772,2.9785,2.9792,2.9815,2.981,2.9835,2.9845,2.9859,2.9883,2.9921,2.9947,2.9983,3.0061,3.0064,3.0095,3.0105,3.0113,3.012,3.0159,3.0172,3.0033,3.0033,3.0032,0,0,2.9684,2.9702,2.973,2.9782,2.9801,2.9843,2.9801,2.9849,2.988,2.9852,2.9912,2.9923,2.995,3.002,3.0051,3.0031,3.016,3.0121,3.0128,3.013,3.0166,3.018,3.0191,3.0037,3.0036,3.0035,0,0,2.9777,2.9798,2.9853,2.9873,2.9901,2.9905,2.9918,2.9942,2.9948,3.0009,2.9988,3.0024,3.0091,3.011,3.0128,3.0227,3.0208,3.0239,3.029,3.0327,3.0338,3.0348,3.038,3.0392,3.0246,3.0247,3.0247,0,2.9823,2.9888,2.9884,2.9933,2.9954,2.9932,2.9986,3.0005,3.0044,3.0059,3.0037,3.0118,3.0135,3.0207,3.0231,3.0248,3.026,3.0235,3.0337,3.0347,3.0356,3.0386,3.0398,3.025,3.025,3.0249,3.0249,0,2.9941,2.9986,3.0027,3.0065,3.0092,3.0144,3.0145,3.0173,3.0165,3.0169,3.0229,3.0249,3.0287,3.0304,3.0297,3.0374,3.0361,3.0338,3.0297,3.0372,3.04,3.0412,3.0255,3.0253,3.0252,3.0252,0,0,3.0065,3.0098,3.0113,3.0129,3.0158,3.0192,3.0242,3.0279,3.0301,3.0329,3.0368,3.0424,3.0402,3.0423,3.0418,3.0451,3.0524,3.0424,3.0424,3.0439,3.0606,3.0621,3.0635,3.0512,3.0515,3.0516,3.0603,0,3.0158,3.0245,3.0241,3.0322,3.0362,3.034,3.0382,3.0404,3.0409,3.0443,3.0448,3.0487,3.0457,3.0469,3.0501,3.0508,3.0557,3.0502,3.0546,3.0548,3.0538,3.065,3.0667,3.0748,3.0615,3.0616,3.0618,0,3.0278,3.0309,3.0393,3.0414,3.043,3.0469,3.0501,3.0534,3.0557,3.0559,3.0581,3.0569,3.0617,3.0576,3.064,3.0603,3.0621,3.0627,3.063,3.0632,3.0586,3.0653,3.0774,3.0785,3.0636,3.0634,3.0633,0,3.0356,3.0419,3.0476,3.0491,3.0517,3.0544,3.0556,3.0576,3.0598,3.0626,3.064,3.0673,3.0691,3.0716,3.0713,3.0684,3.0777,3.0737,3.0777,3.0777,3.0796,3.0794,3.0919,3.0812,3.0812,3.0812,3.0812,0,3.0459,3.0511,3.0511,3.0547,3.0603,3.0597,3.0653,3.0662,3.068,3.0715,3.0698,3.0731,3.0726,3.0759,3.0757,3.0808,3.0817,3.0818,3.0816,3.0818,3.0817,3.0828,3.0821,3.0815,3.0815,3.0814,3.0813,0,3.0555,3.0558,3.0619,3.0638,3.0644,3.0684,3.07,3.0732,3.0736,3.078,3.079,3.0796,3.0833,3.0833,3.0876,3.0874,3.0936,3.0929,3.0928,3.0926,3.0965,3.096,3.1099,3.1115,3.1,3.1001,3.1002,0,3.0619,3.0658,3.0681,3.0703,3.0717,3.0753,3.0775,3.0771,3.0794,3.0821,3.085,3.0885,3.0913,3.0973,3.098,3.1012,3.1004,3.105,3.1009,3.1008,3.1001,3.0997,3.1,3.1058,3.1059,3.106,3.1061,0,3.0731,3.073,3.0762,3.0795,3.0821,3.0846,3.087,3.0889,3.0887,3.0913,3.0951,3.0972,3.1015,3.105,3.108,3.109,3.1074,3.1074,3.1085,3.1085,3.1082,3.1081,3.0947,3.1071,3.107,3.1069,3.1068,3.1068,3.0811,3.0843,3.0863,3.0899,3.0916,3.0938,3.0968,3.0975,3.1007,3.1041,3.1037,3.1078,3.1097,3.1136,3.1149,3.118,3.1163,3.1179,3.1183,3.1186,3.1189,3.1079,3.1186,3.1186,3.1185,3.1185,3.1185,0,3.0919,3.0931,3.0964,3.0996,3.1024,3.1008,3.1032,3.1055,3.1092,3.1112,3.1139,3.1181,3.1214,3.1223,3.1254,3.1277,3.127,3.1285,3.1282,3.1284,3.1204,3.119,3.129,3.129,3.129,3.129,3.1289,3.1289,3.0978,3.1031,3.1032,3.1092,3.1103,3.1144,3.1158,3.1177,3.1192,3.124,3.1267,3.1273,3.1288,3.1319,3.1348,3.135,3.136,3.1378,3.1376,3.13,3.129,3.128,3.1267,3.1381,3.1381,3.1453,3.1454,3.1454]},{"header":{"parameterUnit":"m.s-1","parameterCategory":1,"la1":30.2991,"la2":30.254,"lo1":-89.0895,"lo2":-89.0444,"dy":0.0017,"dx":0.0017,"nx":28,"ny":28,"refTime":"2023-07-19T03:00:00:Z","depth":0,"parameterNumber":3,"parameterNumberName":"V-component_of_WINDS"},"data":[0,0,0,0,0,0,0,0,0,0,0,0,0,0,0,0,0,0,0,0,0,0,0,0,0,0,0,0,0,0,0,0,0,0,0,0,0,0,0,0,0,0,0,0,0,0,0,0,0,0,0,0,0,0,0,0,0,0,2.3143,2.3144,0,2.3246,2.3247,2.3248,2.3245,2.3244,2.3242,2.3241,2.3347,2.3351,2.3355,0,0,0,0,0,0,0,0,0,0,0,0,0,2.2943,2.2947,2.3143,2.3144,2.3145,2.3245,2.3247,2.3248,2.3245,2.3244,2.3242,2.324,2.3346,2.3351,2.3356,0,0,0,0,0,0,0,0,0,0,0,0,0,2.3036,2.2948,2.3143,2.3156,2.3158,2.3245,2.3247,2.3249,2.3246,2.3244,2.3242,2.324,2.3344,2.335,2.3356,2.3437,0,0,2.3375,2.3378,0,0,0,0,0,0,0,0,2.3031,2.3044,2.3153,2.3155,2.3158,2.323,2.3215,2.3312,2.3246,2.3213,2.3241,2.3239,2.331,2.3319,2.3343,2.3442,2.3446,2.3376,2.3379,2.3382,2.3384,0,0,0,0,0,0,0,2.3025,2.3039,2.3183,2.3154,2.3158,2.3157,2.3168,2.3234,2.3272,2.3215,2.3215,2.3228,2.3311,2.3337,2.3345,2.3448,2.3376,2.3381,2.3385,2.3387,2.3615,2.3618,0,0,0,0,0,0,2.3015,2.3034,2.318,2.3187,2.3088,2.3162,2.3174,2.3209,2.3271,2.3279,2.3229,2.3227,2.3327,2.3338,2.3349,2.3446,2.3382,2.3388,2.3391,2.3613,2.3616,2.3618,0,0,0,0,0,0,2.3011,2.3029,2.3176,2.311,2.3129,2.3168,2.3207,2.3212,2.3238,2.3282,2.3288,2.3249,2.3326,2.334,2.3414,2.345,2.3391,2.3396,2.361,2.3614,2.3617,2.3642,0,0,0,0,0,0,2.3005,2.3027,2.3059,2.3111,2.3133,2.324,2.3209,2.3216,2.3249,2.3247,2.3302,2.3309,2.3325,2.3405,2.342,2.3457,2.3401,2.3607,2.3612,2.3616,2.3638,2.3646,2.3652,0,0,0,0,0,2.2998,2.3062,2.306,2.3078,2.3173,2.3242,2.3255,2.3272,2.3252,2.3283,2.3311,2.3307,2.3443,2.3413,2.343,2.3469,2.3605,2.3611,2.3616,2.3635,2.3644,2.3652,0,0,0,0,0,0,2.3014,2.3069,2.3068,2.315,2.3191,2.3242,2.3282,2.3282,2.333,2.3327,2.3347,2.3359,2.3433,2.3458,2.3423,2.3549,2.3521,2.353,2.353,2.3539,2.3546,2.3539,2.3406,0,0,0,0,0,2.3026,2.3078,2.3124,2.3193,2.3213,2.3244,2.3275,2.3285,2.3329,2.3346,2.3379,2.3422,2.3474,2.3508,2.3558,2.3641,2.3652,2.3676,2.3683,2.3689,2.3697,2.3741,2.3752,2.3636,2.3636,2.3636,0,0,2.3054,2.3091,2.3123,2.3196,2.323,2.3282,2.3259,2.3316,2.3356,2.3355,2.3427,2.3452,2.3501,2.3579,2.3615,2.3602,2.3731,2.3696,2.37,2.3705,2.3747,2.3758,2.3768,2.3639,2.3639,2.3638,0,0,2.3131,2.3164,2.3224,2.3257,2.3307,2.3327,2.3341,2.3391,2.3407,2.3479,2.3479,2.3526,2.3616,2.365,2.3679,2.3765,2.3763,2.3781,2.3819,2.3861,2.387,2.3878,2.3909,2.3919,2.3788,2.3788,2.3788,0,2.3159,2.3239,2.3255,2.3312,2.3344,2.3344,2.3405,2.3436,2.35,2.3522,2.3506,2.3617,2.365,2.3736,2.3756,2.378,2.3796,2.3775,2.3868,2.3876,2.3884,2.3913,2.3924,2.379,2.379,2.379,2.379,0,2.327,2.3325,2.3367,2.3428,2.3464,2.3523,2.3547,2.3582,2.3588,2.3609,2.3681,2.372,2.3778,2.3798,2.3805,2.3884,2.3875,2.3863,2.3836,2.3896,2.3924,2.3935,2.3793,2.3792,2.3792,2.3791,0,0,2.3362,2.3429,2.3444,2.347,2.3524,2.3567,2.3624,2.368,2.3709,2.3752,2.38,2.3875,2.3864,2.3897,2.3907,2.3944,2.4009,2.3928,2.3929,2.3941,2.4097,2.4105,2.4118,2.4007,2.4009,2.4011,2.4093,0,2.3444,2.3547,2.3561,2.3651,2.3701,2.3701,2.3751,2.3789,2.3809,2.3854,2.3877,2.3929,2.3911,2.3931,2.3968,2.3993,2.404,2.3987,2.4052,2.4054,2.404,2.4132,2.4142,2.4217,2.4104,2.4105,2.4107,0,2.3555,2.36,2.3694,2.3739,2.376,2.3805,2.3856,2.3899,2.3941,2.3953,2.3989,2.3994,2.4052,2.4021,2.4102,2.4066,2.4092,2.4109,2.4112,2.4119,2.4084,2.4142,2.4242,2.4253,2.4124,2.4123,2.4121,0,2.3611,2.3695,2.3762,2.3785,2.3839,2.387,2.3894,2.3934,2.3965,2.401,2.403,2.4081,2.4109,2.4147,2.4165,2.4141,2.4244,2.4215,2.4255,2.4255,2.4278,2.4276,2.4384,2.4295,2.4295,2.4295,2.4294,0,2.3702,2.376,2.3788,2.383,2.3893,2.3909,2.3972,2.3995,2.403,2.4075,2.4078,2.412,2.4141,2.4186,2.4201,2.4264,2.4277,2.4288,2.4291,2.4288,2.4287,2.4307,2.4302,2.4298,2.4297,2.4296,2.4296,0,2.3777,2.3798,2.3871,2.3915,2.3927,2.3972,2.401,2.405,2.4068,2.4125,2.414,2.417,2.4223,2.4244,2.431,2.4319,2.4392,2.4391,2.4378,2.4379,2.4418,2.4413,2.4542,2.4559,2.4459,2.446,2.446,0,2.3833,2.3877,2.3925,2.3955,2.398,2.4028,2.406,2.4076,2.4109,2.4159,2.4192,2.4245,2.4288,2.4373,2.44,2.445,2.445,2.4491,2.4458,2.4452,2.445,2.4447,2.4451,2.4498,2.4499,2.45,2.45,0,2.3931,2.3939,2.3984,2.4033,2.407,2.4109,2.4148,2.4172,2.4194,2.423,2.4284,2.4317,2.4383,2.4435,2.4485,2.4509,2.4509,2.451,2.4522,2.452,2.451,2.4515,2.4395,2.4508,2.4507,2.4506,2.4506,2.4506,2.3998,2.4037,2.4076,2.4126,2.4156,2.4191,2.4229,2.4252,2.4297,2.4352,2.4358,2.4416,2.4454,2.4522,2.4548,2.4592,2.4582,2.4599,2.4603,2.4607,2.461,2.4502,2.4602,2.4601,2.4601,2.4601,2.4601,0,2.4096,2.412,2.4166,2.4218,2.4257,2.4251,2.4293,2.4325,2.4376,2.4412,2.4453,2.4514,2.4564,2.4594,2.4644,2.4674,2.4674,2.4686,2.4685,2.469,2.4617,2.4601,2.4685,2.4685,2.4685,2.4685,2.4685,2.4685,2.4151,2.4215,2.4227,2.4305,2.433,2.4385,2.4409,2.4441,2.447,2.4537,2.4578,2.4597,2.4631,2.4682,2.4727,2.4735,2.4753,2.4766,2.4772,2.4704,2.4695,2.4687,2.4672,2.477,2.477,2.4842,2.4842,2.4843]}]]